Cordova, SC

8:17 PM EST on February 10, 2016 (GMT -0500)
Orangeburg Municipal

Weather History for KOGB - February, 2013

Change the Weather History Date:

Wednesday, February 20, 2013

  Actual Average Record
Temperature  
Mean Temperature 46 °F 50 °F  
Max Temperature 59 °F 62 °F 83 °F (2014)
Min Temperature 33 °F 39 °F 16 °F (2015)
Degree Days  
Heating Degree Days 19 15  
Month to date heating degree days 330 327  
Since 1 July heating degree days 1515 1824  
Cooling Degree Days 0 0  
Month to date cooling degree days 0 0  
Year to date cooling degree days 20 1  
Moisture  
Dew Point 28 °F    
Average Humidity 52    
Maximum Humidity 83    
Minimum Humidity 24    
Precipitation  
Precipitation 0.00 in 0.14 in 0.66 in (1949)
Month to date precipitation 5.11 2.39  
Year to date precipitation 5.95 6.37  
Sea Level Pressure  
Sea Level Pressure 30.10 in    
Wind  
Wind Speed 4 mph (West)    
Max Wind Speed 12 mph    
Max Gust Speed 16 mph    
Visibility 10 miles    
Events      
T = Trace of Precipitation, MM = Missing Value Source: NWS Daily Summary

Daily Weather History Graph

Daily Weather History Graph

Search for Another Location

Airport or City:

Trip Planner

Search our weather history database for the weather conditions in past years. The results will help you decide how hot, cold, wet, or windy it might be!

Date:

Astronomy

Feb. 20, 2013 Rise Set
Actual Time 7:01 AM EST 6:12 PM EST
Civil Twilight 6:36 AM EST 6:38 PM EST
Nautical Twilight 6:07 AM EST 7:07 PM EST
Astronomical Twilight 5:38 AM EST 7:35 PM EST
Moon 1:41 PM EST (2/20) 3:12 AM EST (2/20)
Length of Visible Light 12h 01m
Length of Day
11h 10m
Waxing Gibbous, 76% of the Moon is Illuminated
Feb 20
Waxing Gibbous
Feb 25
Full
Mar 4
Last Quarter
Mar 11
New
Mar 19
First Quarter

Hourly Weather History & Observations

Time (EST) Temp. Windchill Dew Point Humidity Pressure Visibility Wind Dir Wind Speed Gust Speed Precip Events Conditions
12:53 AM 44.1 °F 40.1 °F 35.1 °F 71% 30.07 in 10.0 mi WNW 6.9 mph - N/A   Clear
1:53 AM 42.1 °F 38.4 °F 30.9 °F 65% 30.08 in 10.0 mi NW 5.8 mph - N/A   Clear
2:53 AM 39.9 °F 35.8 °F 28.9 °F 65% 30.09 in 10.0 mi WNW 5.8 mph - N/A   Clear
3:53 AM 39.9 °F 35.1 °F 27.0 °F 60% 30.09 in 10.0 mi WNW 6.9 mph - N/A   Clear
4:53 AM 37.0 °F 32.4 °F 26.1 °F 65% 30.10 in 10.0 mi WNW 5.8 mph - N/A   Clear
5:53 AM 37.0 °F 34.5 °F 25.0 °F 62% 30.11 in 10.0 mi WNW 3.5 mph - N/A   Clear
6:53 AM 33.1 °F 30.0 °F 26.1 °F 75% 30.12 in 10.0 mi NNW 3.5 mph - N/A   Clear
7:53 AM 34.0 °F - 28.9 °F 82% 30.16 in 10.0 mi Calm Calm - N/A   Clear
8:53 AM 39.9 °F 37.8 °F 27.0 °F 60% 30.17 in 10.0 mi WNW 3.5 mph - N/A   Clear
9:53 AM 45.0 °F 43.5 °F 24.1 °F 44% 30.16 in 10.0 mi NNW 3.5 mph - N/A   Clear
11:53 AM 51.1 °F - 21.0 °F 31% 30.14 in 10.0 mi Calm Calm - N/A   Clear
12:53 PM 55.0 °F - 21.0 °F 27% 30.10 in 10.0 mi SW 3.5 mph - N/A   Clear
1:53 PM 55.9 °F - 19.0 °F 24% 30.06 in 10.0 mi SW 6.9 mph - N/A   Clear
2:53 PM 57.9 °F - 21.9 °F 25% 30.07 in 10.0 mi SW 11.5 mph 16.1 mph N/A   Clear
3:53 PM 57.9 °F - 23.0 °F 26% 30.06 in 10.0 mi SW 3.5 mph - N/A   Clear
4:53 PM 57.9 °F - 26.1 °F 30% 30.08 in 10.0 mi WSW 8.1 mph - N/A   Clear
5:53 PM 55.9 °F - 28.0 °F 34% 30.10 in 10.0 mi WSW 6.9 mph - N/A   Clear
6:53 PM 54.0 °F - 28.9 °F 38% 30.11 in 10.0 mi West 5.8 mph - N/A   Partly Cloudy
7:53 PM 52.0 °F - 30.9 °F 45% 30.08 in 10.0 mi Calm Calm - N/A   Mostly Cloudy
8:53 PM 48.9 °F - 33.1 °F 54% 30.09 in 10.0 mi Calm Calm - N/A   Clear
9:53 PM 44.1 °F - 34.0 °F 68% 30.10 in 10.0 mi Calm Calm - N/A   Clear
10:53 PM 42.1 °F - 34.0 °F 73% 30.11 in 10.0 mi Calm Calm - N/A   Clear
11:53 PM 39.9 °F - 34.0 °F 79% 30.11 in 10.0 mi Calm Calm - N/A   Clear